Location: Crescent
(42.8242°N, 73.7329°W)
Time: 14:42:26
(UTC+00:00)

Courier 1B - Pass Details

Date: 24 February 2026
Orbit: 962 x 1208 km, 28.3° (Epoch: 7 March)

Event Time Altitude Azimuth Distance (km) Brightness Sun altitude
Rises 01:24:08 0° 252° (WSW) 3,849 11.4 -31.1°
Reaches altitude 10° 01:27:25 10° 238° (WSW) 2,937 10.4 -31.7°
Enters shadow 01:32:11 23° 197° (SSW) 2,195 9.3 -32.5°
